| time (UTC) | temp C | wind direction | speed KPH | gust KPH | rain 1hr cm | rain 24hr cm | rain mn cm | humidity % | barometer mb |
| 20260904194704 | 32 | 193 | 3.2 | 4.8 | 0.00 | 0.81 | 0.81 | 66 | 1010.5 |
| 20260904194204 | 32 | 150 | 3.2 | 8.0 | 0.00 | 0.81 | 0.81 | 69 | 1010.5 |
| 20260904193205 | 32 | 219 | 1.6 | 4.8 | 0.00 | 0.81 | 0.81 | 66 | 1010.7 |
| 20260904192705 | 32 | 199 | 3.2 | 4.8 | 0.00 | 0.81 | 0.81 | 67 | 1010.6 |
| 20260904192205 | 31 | 180 | 3.2 | 4.8 | 0.00 | 0.81 | 0.81 | 66 | 1010.6 |
| 20260904191704 | 31 | 186 | 3.2 | 8.0 | 0.00 | 0.81 | 0.81 | 67 | 1010.7 |
| 20260904191205 | 31 | 158 | 3.2 | 4.8 | 0.00 | 0.81 | 0.81 | 66 | 1010.8 |
| 20260904190705 | 31 | 181 | 4.8 | 4.8 | 0.00 | 0.81 | 0.81 | 63 | 1010.7 |
| 20260904190204 | 31 | 198 | 3.2 | 8.0 | 0.00 | 0.81 | 0.81 | 66 | 1010.8 |
| 20260904185705 | 31 | 232 | 4.8 | 8.0 | 0.00 | 0.81 | 0.81 | 67 | 1010.8 |
| 20260904185205 | 31 | 203 | 6.4 | 11.3 | 0.00 | 0.81 | 0.81 | 64 | 1010.9 |
| 20260904184704 | 31 | 228 | 1.6 | 12.9 | 0.00 | 0.81 | 0.81 | 64 | 1011.0 |
| 20260904184204 | 31 | 253 | 3.2 | 11.3 | 0.00 | 0.81 | 0.81 | 62 | 1011.1 |
| 20260904183704 | 31 | 291 | 4.8 | 11.3 | 0.00 | 0.81 | 0.81 | 65 | 1011.1 |
| 20260904183204 | 31 | 234 | 4.8 | 9.7 | 0.00 | 0.81 | 0.81 | 63 | 1011.2 |
| 20260904182704 | 31 | 223 | 1.6 | 4.8 | 0.00 | 0.81 | 0.81 | 68 | 1011.2 |
| 20260904182204 | 31 | 249 | 3.2 | 4.8 | 0.00 | 0.81 | 0.81 | 67 | 1011.2 |
| 20260904181704 | 31 | 221 | 3.2 | 11.3 | 0.00 | 0.81 | 0.81 | 67 | 1011.3 |
| 20260904181204 | 31 | 247 | 3.2 | 12.9 | 0.00 | 0.81 | 0.81 | 67 | 1011.4 |
| 20260904180204 | 31 | 235 | 1.6 | 4.8 | 0.00 | 0.81 | 0.81 | 67 | 1011.4 |
| 20260904175705 | 31 | 267 | 3.2 | 12.9 | 0.00 | 0.81 | 0.81 | 66 | 1011.4 |
| 20260904175205 | 30 | 350 | 3.2 | 8.0 | 0.00 | 0.81 | 0.81 | 67 | 1011.5 |
| 20260904174704 | 30 | 267 | 3.2 | 14.5 | 0.00 | 0.81 | 0.81 | 68 | 1011.5 |
| 20260904174204 | 30 | 356 | 4.8 | 9.7 | 0.00 | 0.81 | 0.81 | 66 | 1011.6 |
| 20260904173204 | 30 | 334 | 3.2 | 8.0 | 0.00 | 0.81 | 0.81 | 68 | 1011.6 |
| 20260904172704 | 30 | 343 | 3.2 | 12.9 | 0.00 | 0.81 | 0.81 | 67 | 1011.6 |
| 20260904171704 | 30 | 265 | 3.2 | 4.8 | 0.00 | 0.81 | 0.81 | 67 | 1011.6 |
| 20260904170704 | 30 | 267 | 4.8 | 12.9 | 0.00 | 0.81 | 0.81 | 69 | 1011.7 |
| 20260904170204 | 30 | 278 | 3.2 | 11.3 | 0.00 | 0.81 | 0.81 | 69 | 1011.8 |
| 20260904165704 | 30 | 227 | 4.8 | 8.0 | 0.00 | 0.81 | 0.81 | 68 | 1011.9 |
| 20260904165205 | 30 | 352 | 3.2 | 4.8 | 0.00 | 0.81 | 0.81 | 70 | 1012.0 |
| 20260904164704 | 29 | 223 | 3.2 | 9.7 | 0.00 | 0.81 | 0.81 | 70 | 1012.0 |
| 20260904164205 | 29 | 296 | 6.4 | 12.9 | 0.00 | 0.81 | 0.81 | 69 | 1012.0 |
| 20260904163704 | 29 | 345 | 3.2 | 12.9 | 0.00 | 0.81 | 0.81 | 69 | 1012.0 |
| 20260904162704 | 29 | 2 | 8.0 | 12.9 | 0.00 | 0.81 | 0.81 | 67 | 1012.1 |
| 20260904162204 | 29 | 10 | 4.8 | 11.3 | 0.00 | 0.81 | 0.81 | 67 | 1012.1 |
| 20260904161204 | 29 | 283 | 8.0 | 14.5 | 0.00 | 0.81 | 0.81 | 71 | 1012.2 |
| 20260904160704 | 29 | 25 | 4.8 | 12.9 | 0.00 | 0.81 | 0.81 | 70 | 1012.2 |
| 20260904160205 | 29 | 39 | 4.8 | 14.5 | 0.00 | 0.81 | 0.81 | 71 | 1012.3 |
| 20260904155205 | 29 | 350 | 8.0 | 16.1 | 0.00 | 0.81 | 0.81 | 67 | 1012.3 |
| 20260904154704 | 29 | 318 | 9.7 | 19.3 | 0.00 | 0.81 | 0.81 | 70 | 1012.3 |
| 20260904154204 | 28 | 356 | 4.8 | 9.7 | 0.00 | 0.81 | 0.81 | 70 | 1012.3 |
| 20260904153205 | 28 | 355 | 4.8 | 16.1 | 0.00 | 0.81 | 0.81 | 72 | 1012.2 |
| 20260904152704 | 28 | 15 | 3.2 | 14.5 | 0.00 | 0.81 | 0.81 | 71 | 1012.2 |
| 20260904152204 | 28 | 351 | 11.3 | 19.3 | 0.00 | 0.81 | 0.81 | 68 | 1012.3 |
| 20260904150704 | 28 | 0 | 4.8 | 12.9 | 0.00 | 0.81 | 0.81 | 72 | 1012.3 |
| 20260904145704 | 28 | 347 | 3.2 | 12.9 | 0.00 | 0.81 | 0.81 | 76 | 1012.4 |
| 20260904145204 | 28 | 298 | 3.2 | 8.0 | 0.00 | 0.81 | 0.81 | 77 | 1012.6 |
| 20260904144704 | 28 | 337 | 3.2 | 4.8 | 0.00 | 0.81 | 0.81 | 77 | 1012.7 |
| 20260904143204 | 27 | 350 | 4.8 | 11.3 | 0.00 | 0.81 | 0.81 | 77 | 1012.4 |
| 20260904142704 | 27 | 6 | 3.2 | 9.7 | 0.00 | 0.81 | 0.81 | 77 | 1012.4 |
| 20260904142205 | 27 | 355 | 3.2 | 9.7 | 0.00 | 0.81 | 0.81 | 78 | 1012.5 |
| 20260904141704 | 27 | 333 | 6.4 | 12.9 | 0.00 | 0.81 | 0.81 | 76 | 1012.5 |
| 20260904141204 | 27 | 336 | 9.7 | 19.3 | 0.00 | 0.81 | 0.81 | 76 | 1012.5 |
| 20260904140703 | 27 | 318 | 4.8 | 14.5 | 0.00 | 0.81 | 0.81 | 79 | 1012.3 |
| 20260904135704 | 27 | 318 | 3.2 | 9.7 | 0.00 | 0.81 | 0.81 | 82 | 1012.4 |
| 20260904134704 | 27 | 243 | 4.8 | 12.9 | 0.00 | 0.81 | 0.81 | 83 | 1012.4 |
| 20260904133204 | 26 | 314 | 1.6 | 4.8 | 0.00 | 0.81 | 0.81 | 86 | 1012.2 |
| 20260904132703 | 26 | 226 | 4.8 | 12.9 | 0.00 | 0.81 | 0.81 | 85 | 1012.2 |
| 20260904131704 | 25 | 235 | 4.8 | 8.0 | 0.00 | 0.81 | 0.81 | 87 | 1012.3 |
| 20260904131204 | 25 | 338 | 3.2 | 11.3 | 0.00 | 0.81 | 0.81 | 89 | 1012.1 |
| 20260904130704 | 25 | 282 | 3.2 | 9.7 | 0.00 | 0.81 | 0.81 | 90 | 1012.0 |
| 20260904125704 | 25 | 229 | 4.8 | 11.3 | 0.00 | 0.81 | 0.81 | 90 | 1012.3 |
| 20260904125204 | 25 | 255 | 3.2 | 11.3 | 0.00 | 0.81 | 0.81 | 91 | 1012.5 |
| 20260904124705 | 24 | 193 | 3.2 | 12.9 | 0.00 | 0.81 | 0.81 | 92 | 1012.5 |
| 20260904124204 | 24 | 286 | 3.2 | 11.3 | 0.00 | 0.81 | 0.81 | 93 | 1012.4 |
| 20260904123704 | 24 | 286 | 4.8 | 8.0 | 0.00 | 0.81 | 0.81 | 94 | 1012.4 |
| 20260904123204 | 23 | 304 | 3.2 | 9.7 | 0.00 | 0.81 | 0.81 | 94 | 1012.4 |
| 20260904122704 | 23 | 184 | 4.8 | 11.3 | 0.00 | 0.81 | 0.81 | 94 | 1012.4 |
| 20260904122204 | 23 | 351 | 1.6 | 12.9 | 0.00 | 0.81 | 0.81 | 94 | 1012.4 |
| 20260904121704 | 23 | 211 | 3.2 | 9.7 | 0.00 | 0.81 | 0.81 | 95 | 1012.5 |
| 20260904121204 | 23 | 294 | 3.2 | 9.7 | 0.00 | 0.81 | 0.81 | 95 | 1012.3 |
| 20260904120704 | 23 | 298 | 4.8 | 12.9 | 0.00 | 0.81 | 0.81 | 95 | 1012.4 |
| 20260904120204 | 23 | 224 | 3.2 | 4.8 | 0.00 | 0.81 | 0.81 | 94 | 1012.4 |
| 20260904115705 | 23 | 230 | 3.2 | 9.7 | 0.00 | 0.81 | 0.81 | 94 | 1012.3 |
| 20260904114704 | 22 | 260 | 1.6 | 4.8 | 0.00 | 0.81 | 0.81 | 94 | 1012.3 |
| 20260904114204 | 22 | 321 | 1.6 | 4.8 | 0.00 | 0.81 | 0.81 | 94 | 1012.2 |
| 20260904113704 | 22 | 237 | 3.2 | 8.0 | 0.00 | 0.81 | 0.81 | 94 | 1012.2 |
| 20260904113204 | 22 | 234 | 4.8 | 11.3 | 0.00 | 0.81 | 0.81 | 94 | 1012.3 |
| 20260904112704 | 22 | 271 | 3.2 | 8.0 | 0.00 | 0.81 | 0.81 | 94 | 1012.4 |
| 20260904112204 | 22 | 224 | 3.2 | 4.8 | 0.00 | 0.81 | 0.81 | 94 | 1012.6 |
| 20260904111704 | 22 | 237 | 0.0 | 3.2 | 0.00 | 0.81 | 0.81 | 94 | 1012.6 |
| 20260904110704 | 22 | 320 | 1.6 | 8.0 | 0.00 | 0.81 | 0.81 | 94 | 1012.2 |
| 20260904110204 | 22 | 243 | 1.6 | 4.8 | 0.00 | 0.81 | 0.81 | 94 | 1012.0 |
| 20260904105704 | 22 | 298 | 1.6 | 4.8 | 0.00 | 0.81 | 0.81 | 94 | 1012.1 |
| 20260904105204 | 22 | 290 | 1.6 | 4.8 | 0.00 | 0.81 | 0.81 | 94 | 1012.2 |
| 20260904104704 | 22 | 233 | 1.6 | 3.2 | 0.00 | 0.81 | 0.81 | 94 | 1012.0 |
| 20260904103704 | 23 | 323 | 0.0 | 4.8 | 0.00 | 0.81 | 0.81 | 94 | 1012.2 |
| 20260904103203 | 23 | 281 | 1.6 | 4.8 | 0.00 | 0.81 | 0.81 | 94 | 1012.1 |
| 20260904102204 | 22 | 210 | 1.6 | 3.2 | 0.00 | 0.81 | 0.81 | 94 | 1011.9 |
| 20260904101704 | 22 | 314 | 1.6 | 3.2 | 0.00 | 0.81 | 0.81 | 94 | 1011.7 |
| 20260904101204 | 22 | 314 | 0.0 | 3.2 | 0.00 | 0.81 | 0.81 | 94 | 1011.7 |
| 20260904100704 | 22 | 314 | 0.0 | 3.2 | 0.00 | 0.81 | 0.81 | 94 | 1011.7 |
| 20260904100204 | 22 | 298 | 0.0 | 3.2 | 0.00 | 0.81 | 0.81 | 94 | 1011.4 |
| 20260904095704 | 22 | 304 | 0.0 | 0.0 | 0.00 | 0.81 | 0.81 | 94 | 1011.4 |
| 20260904095205 | 22 | 291 | 0.0 | 0.0 | 0.00 | 0.81 | 0.81 | 94 | 1011.4 |
| 20260904094706 | 22 | 331 | 0.0 | 0.0 | 0.00 | 0.81 | 0.81 | 94 | 1011.3 |
| 20260904094205 | 23 | 234 | 0.0 | 0.0 | 0.00 | 0.81 | 0.81 | 94 | 1011.4 |
| 20260904093206 | 23 | 333 | 1.6 | 4.8 | 0.00 | 0.81 | 0.81 | 94 | 1011.3 |
| 20260904092705 | 23 | 327 | 1.6 | 3.2 | 0.00 | 0.81 | 0.81 | 94 | 1011.2 |
| 20260904092205 | 23 | 321 | 1.6 | 3.2 | 0.00 | 0.81 | 0.81 | 94 | 1011.1 |
| 20260904091705 | 23 | 294 | 0.0 | 4.8 | 0.00 | 0.81 | 0.81 | 94 | 1011.1 |
| 20260904091206 | 23 | 254 | 3.2 | 4.8 | 0.00 | 0.81 | 0.81 | 94 | 1011.2 |
| 20260904090705 | 23 | 316 | 0.0 | 4.8 | 0.00 | 0.81 | 0.81 | 94 | 1011.3 |
| 20260904090205 | 23 | 319 | 1.6 | 3.2 | 0.00 | 0.81 | 0.81 | 94 | 1011.3 |
| 20260904085705 | 23 | 314 | 0.0 | 3.2 | 0.00 | 0.81 | 0.81 | 94 | 1011.3 |
| 20260904085206 | 23 | 286 | 1.6 | 4.8 | 0.00 | 0.81 | 0.81 | 94 | 1011.3 |
| 20260904083706 | 23 | 294 | 1.6 | 3.2 | 0.00 | 0.81 | 0.81 | 94 | 1011.5 |
| 20260904083205 | 23 | 312 | 1.6 | 4.8 | 0.00 | 0.81 | 0.81 | 94 | 1011.5 |
| 20260904082706 | 23 | 261 | 4.8 | 12.9 | 0.00 | 0.81 | 0.81 | 94 | 1011.7 |
| 20260904082205 | 23 | 236 | 11.3 | 19.3 | 0.00 | 0.81 | 0.81 | 94 | 1011.6 |
| 20260904081705 | 23 | 225 | 12.9 | 14.5 | 0.00 | 0.81 | 0.81 | 94 | 1011.7 |
| 20260904081205 | 23 | 228 | 12.9 | 16.1 | 0.00 | 0.81 | 0.81 | 94 | 1011.6 |
| 20260904080706 | 23 | 225 | 9.7 | 12.9 | 0.00 | 0.81 | 0.81 | 94 | 1011.6 |
| 20260904080205 | 23 | 229 | 9.7 | 12.9 | 0.00 | 0.81 | 0.81 | 94 | 1011.7 |
| 20260904075705 | 23 | 232 | 8.0 | 11.3 | 0.00 | 0.81 | 0.81 | 94 | 1011.8 |
| 20260904075206 | 23 | 276 | 1.6 | 3.2 | 0.00 | 0.81 | 0.81 | 94 | 1011.8 |
| 20260904074705 | 23 | 309 | 1.6 | 3.2 | 0.00 | 0.81 | 0.81 | 94 | 1011.6 |
| 20260904074206 | 23 | 265 | 1.6 | 3.2 | 0.00 | 0.81 | 0.81 | 94 | 1011.6 |
| 20260904073706 | 23 | 269 | 3.2 | 4.8 | 0.00 | 0.81 | 0.81 | 94 | 1011.6 |
| 20260904072706 | 23 | 212 | 4.8 | 8.0 | 0.00 | 0.81 | 0.81 | 94 | 1011.6 |
| 20260904072206 | 23 | 200 | 4.8 | 8.0 | 0.03 | 0.81 | 0.81 | 94 | 1011.7 |
| 20260904071705 | 23 | 248 | 3.2 | 9.7 | 0.03 | 0.81 | 0.81 | 94 | 1011.8 |
| 20260904071206 | 23 | 242 | 4.8 | 9.7 | 0.03 | 0.81 | 0.81 | 94 | 1011.8 |
| 20260904070706 | 23 | 230 | 8.0 | 11.3 | 0.03 | 0.81 | 0.81 | 93 | 1011.7 |
| 20260904070206 | 23 | 241 | 4.8 | 12.9 | 0.03 | 0.81 | 0.81 | 93 | 1011.8 |
| 20260904065705 | 23 | 234 | 9.7 | 11.3 | 0.03 | 0.81 | 0.81 | 93 | 1011.9 |
| 20260904063705 | 23 | 215 | 12.9 | 16.1 | 0.10 | 0.81 | 0.81 | 93 | 1011.9 |
| 20260904063205 | 23 | 226 | 9.7 | 16.1 | 0.10 | 0.81 | 0.81 | 93 | 1011.7 |
| 20260904062205 | 23 | 205 | 11.3 | 19.3 | 0.10 | 0.79 | 0.79 | 93 | 1011.7 |
| 20260904060706 | 23 | 186 | 9.7 | 16.1 | 0.15 | 0.79 | 0.79 | 92 | 1011.4 |
| 20260904060206 | 23 | 189 | 4.8 | 11.3 | 0.18 | 0.79 | 0.79 | 92 | 1011.0 |
| 20260904055705 | 23 | 190 | 8.0 | 11.3 | 0.23 | 0.79 | 0.79 | 92 | 1010.9 |
| 20260904055205 | 23 | 170 | 8.0 | 9.7 | 0.28 | 0.76 | 0.76 | 92 | 1011.3 |
| 20260904054705 | 23 | 193 | 3.2 | 8.0 | 0.33 | 0.74 | 0.74 | 92 | 1011.5 |
| 20260904054205 | 23 | 186 | 8.0 | 14.5 | 0.48 | 0.71 | 0.71 | 92 | 1011.5 |
| 20260904053706 | 23 | 130 | 8.0 | 14.5 | 0.71 | 0.71 | 0.71 | 92 | 1011.3 |
| 20260904053205 | 23 | 121 | 8.0 | 12.9 | 0.71 | 0.71 | 0.71 | 92 | 1011.7 |
| 20260904052705 | 23 | 111 | 8.0 | 11.3 | 0.71 | 0.71 | 0.71 | 93 | 1012.0 |
| 20260904052205 | 23 | 126 | 8.0 | 9.7 | 0.69 | 0.69 | 0.69 | 92 | 1012.4 |
| 20260904051706 | 23 | 175 | 1.6 | 4.8 | 0.66 | 0.66 | 0.66 | 90 | 1012.9 |
| 20260904051206 | 23 | 266 | 0.0 | 1.6 | 0.66 | 0.66 | 0.66 | 90 | 1013.5 |
| 20260904050705 | 23 | 298 | 4.8 | 9.7 | 0.64 | 0.64 | 0.64 | 90 | 1013.8 |
| 20260904050205 | 23 | 288 | 8.0 | 19.3 | 0.61 | 0.61 | 0.61 | 90 | 1013.9 |
| 20260904045705 | 23 | 241 | 4.8 | 19.3 | 0.56 | 0.56 | 0.56 | 89 | 1014.1 |
| 20260904045205 | 23 | 227 | 14.5 | 32.2 | 0.48 | 0.48 | 0.48 | 88 | 1014.2 |
| 20260904044705 | 24 | 230 | 19.3 | 41.8 | 0.41 | 0.41 | 0.41 | 87 | 1014.4 |
| 20260904044206 | 25 | 207 | 20.9 | 37.0 | 0.23 | 0.23 | 0.23 | 85 | 1014.3 |
| 20260904043706 | 26 | 229 | 25.7 | 56.3 | 0.00 | 0.00 | 0.00 | 83 | 1014.0 |
| 20260904043206 | 26 | 254 | 9.7 | 32.2 | 0.00 | 0.00 | 0.00 | 92 | 1013.6 |
| 20260904042706 | 26 | 259 | 12.9 | 24.1 | 0.00 | 0.00 | 0.00 | 92 | 1012.4 |
| 20260904042205 | 26 | 234 | 16.1 | 24.1 | 0.00 | 0.00 | 0.00 | 92 | 1011.8 |
| 20260904041705 | 26 | 229 | 11.3 | 16.1 | 0.00 | 0.00 | 0.00 | 92 | 1011.7 |
| 20260904041205 | 26 | 237 | 9.7 | 16.1 | 0.00 | 0.00 | 0.00 | 92 | 1011.3 |
| 20260904040705 | 26 | 226 | 9.7 | 12.9 | 0.00 | 0.00 | 0.00 | 92 | 1011.2 |
| 20260904040205 | 26 | 199 | 3.2 | 4.8 | 0.00 | 0.00 | 0.00 | 93 | 1010.6 |
| 20260904035705 | 26 | 152 | 1.6 | 4.8 | 0.00 | 0.00 | 0.00 | 92 | 1010.4 |
| 20260904035205 | 26 | 216 | 1.6 | 4.8 | 0.00 | 0.00 | 0.00 | 91 | 1010.5 |
| 20260904034706 | 26 | 216 | 3.2 | 4.8 | 0.00 | 0.00 | 0.00 | 91 | 1010.9 |
| 20260904033705 | 26 | 216 | 1.6 | 3.2 | 0.00 | 0.00 | 0.00 | 91 | 1011.3 |
| 20260904033207 | 26 | 216 | 4.8 | 4.8 | 0.00 | 0.00 | 0.00 | 91 | 1011.4 |
| 20260904032705 | 26 | 216 | 3.2 | 4.8 | 0.00 | 0.00 | 0.00 | 91 | 1011.5 |
| 20260904032205 | 26 | 206 | 3.2 | 8.0 | 0.00 | 0.00 | 0.00 | 91 | 1011.5 |
| 20260904031705 | 26 | 218 | 4.8 | 8.0 | 0.00 | 0.00 | 0.00 | 91 | 1011.6 |
| 20260904031205 | 26 | 205 | 3.2 | 4.8 | 0.00 | 0.00 | 0.00 | 91 | 1011.6 |
| 20260904030706 | 26 | 169 | 1.6 | 4.8 | 0.00 | 0.00 | 0.00 | 91 | 1011.6 |
| 20260904030205 | 26 | 182 | 3.2 | 8.0 | 0.00 | 0.00 | 0.00 | 91 | 1011.7 |
| 20260904025705 | 26 | 206 | 4.8 | 9.7 | 0.00 | 0.00 | 0.00 | 91 | 1011.7 |
| 20260904024705 | 26 | 209 | 6.4 | 9.7 | 0.00 | 0.00 | 0.00 | 91 | 1011.8 |
| 20260904024205 | 27 | 216 | 4.8 | 9.7 | 0.00 | 0.00 | 0.00 | 91 | 1011.9 |
| 20260904023705 | 27 | 212 | 9.7 | 12.9 | 0.00 | 0.00 | 0.00 | 91 | 1011.9 |
| 20260904023205 | 27 | 213 | 8.0 | 11.3 | 0.00 | 0.00 | 0.00 | 91 | 1011.9 |
| 20260904022205 | 27 | 210 | 9.7 | 11.3 | 0.00 | 0.00 | 0.00 | 91 | 1012.0 |
| 20260904021205 | 27 | 219 | 9.7 | 12.9 | 0.00 | 0.00 | 0.00 | 90 | 1012.1 |
| 20260904020705 | 27 | 209 | 8.0 | 11.3 | 0.00 | 0.00 | 0.00 | 90 | 1012.0 |
| 20260904020205 | 27 | 207 | 6.4 | 8.0 | 0.00 | 0.00 | 0.00 | 91 | 1011.9 |
| 20260904015705 | 27 | 192 | 4.8 | 11.3 | 0.00 | 0.00 | 0.00 | 91 | 1011.7 |
| 20260904015205 | 27 | 189 | 8.0 | 11.3 | 0.00 | 0.00 | 0.00 | 91 | 1011.6 |
| 20260904014205 | 27 | 196 | 4.8 | 8.0 | 0.00 | 0.00 | 0.00 | 91 | 1011.7 |
| 20260904013705 | 27 | 176 | 3.2 | 4.8 | 0.00 | 0.00 | 0.00 | 91 | 1011.9 |
| 20260904013205 | 26 | 183 | 3.2 | 4.8 | 0.00 | 0.00 | 0.00 | 90 | 1011.9 |
| 20260904012705 | 26 | 157 | 3.2 | 4.8 | 0.00 | 0.00 | 0.00 | 89 | 1012.0 |
| 20260904012205 | 26 | 175 | 4.8 | 8.0 | 0.00 | 0.00 | 0.00 | 89 | 1012.1 |
| 20260904011705 | 26 | 196 | 8.0 | 11.3 | 0.00 | 0.00 | 0.00 | 89 | 1012.2 |
| 20260904011205 | 26 | 206 | 8.0 | 12.9 | 0.00 | 0.00 | 0.00 | 89 | 1012.3 |
| 20260904010705 | 27 | 203 | 9.7 | 14.5 | 0.00 | 0.00 | 0.00 | 89 | 1012.4 |
| 20260904010205 | 27 | 204 | 8.0 | 11.3 | 0.00 | 0.00 | 0.00 | 89 | 1012.4 |
| 20260904005706 | 27 | 205 | 8.0 | 9.7 | 0.00 | 0.00 | 0.00 | 88 | 1012.5 |
| 20260904005205 | 27 | 200 | 6.4 | 11.3 | 0.00 | 0.00 | 0.00 | 88 | 1012.6 |
| 20260904004705 | 27 | 194 | 8.0 | 11.3 | 0.00 | 0.00 | 0.00 | 88 | 1012.6 |
| 20260904003205 | 27 | 224 | 11.3 | 12.9 | 0.00 | 0.00 | 0.00 | 88 | 1012.6 |
| 20260904002705 | 27 | 224 | 11.3 | 12.9 | 0.00 | 0.00 | 0.00 | 88 | 1012.5 |
| 20260904002205 | 27 | 231 | 11.3 | 14.5 | 0.00 | 0.00 | 0.00 | 87 | 1012.5 |
| 20260904001705 | 27 | 225 | 11.3 | 14.5 | 0.00 | 0.00 | 0.00 | 87 | 1012.4 |
| 20260904001205 | 27 | 226 | 11.3 | 14.5 | 0.00 | 0.00 | 0.00 | 87 | 1012.2 |
| 20260904000705 | 27 | 231 | 11.3 | 14.5 | 0.00 | 0.00 | 0.00 | 87 | 1012.2 |
| 20260904000206 | 27 | 224 | 12.9 | 14.5 | 0.00 | 0.00 | 0.00 | 87 | 1012.0 |
| 20260903235706 | 27 | 220 | 11.3 | 14.5 | 0.00 | 0.00 | 0.00 | 86 | 1011.9 |
| 20260903235205 | 27 | 219 | 11.3 | 14.5 | 0.00 | 0.00 | 0.00 | 86 | 1011.9 |
| 20260903234205 | 27 | 207 | 9.7 | 12.9 | 0.00 | 0.00 | 0.00 | 85 | 1011.8 |
| 20260903233705 | 28 | 205 | 11.3 | 14.5 | 0.00 | 0.00 | 0.00 | 84 | 1011.7 |
| 20260903233205 | 28 | 192 | 8.0 | 12.9 | 0.00 | 0.00 | 0.00 | 84 | 1011.8 |
| 20260903232705 | 28 | 213 | 11.3 | 14.5 | 0.00 | 0.00 | 0.00 | 84 | 1011.8 |
| 20260903232205 | 28 | 209 | 9.7 | 11.3 | 0.00 | 0.00 | 0.00 | 83 | 1011.8 |
| 20260903231705 | 28 | 217 | 9.7 | 12.9 | 0.00 | 0.00 | 0.00 | 83 | 1011.9 |
| 20260903230205 | 28 | 203 | 9.7 | 12.9 | 0.00 | 0.00 | 0.00 | 81 | 1011.8 |
| 20260903225705 | 28 | 210 | 11.3 | 14.5 | 0.00 | 0.00 | 0.00 | 81 | 1011.8 |
| 20260903225206 | 29 | 212 | 12.9 | 14.5 | 0.00 | 0.00 | 0.00 | 81 | 1011.8 |
| 20260903224704 | 29 | 218 | 11.3 | 19.3 | 0.00 | 0.00 | 0.00 | 81 | 1011.8 |
| 20260903224205 | 29 | 208 | 11.3 | 14.5 | 0.00 | 0.00 | 0.00 | 80 | 1011.8 |
| 20260903223705 | 29 | 206 | 11.3 | 12.9 | 0.00 | 0.00 | 0.00 | 80 | 1011.7 |
| 20260903223205 | 29 | 217 | 9.7 | 16.1 | 0.00 | 0.00 | 0.00 | 80 | 1011.7 |
| 20260903222705 | 29 | 207 | 9.7 | 14.5 | 0.00 | 0.00 | 0.00 | 80 | 1011.6 |
| 20260903221705 | 30 | 220 | 11.3 | 14.5 | 0.00 | 0.00 | 0.00 | 79 | 1011.7 |
| 20260903221205 | 30 | 209 | 9.7 | 14.5 | 0.00 | 0.00 | 0.00 | 79 | 1011.6 |
| 20260903220206 | 30 | 212 | 11.3 | 16.1 | 0.00 | 0.00 | 0.00 | 79 | 1011.7 |
| 20260903215705 | 30 | 202 | 11.3 | 14.5 | 0.00 | 0.00 | 0.00 | 78 | 1011.6 |
| 20260903214705 | 30 | 203 | 12.9 | 19.3 | 0.00 | 0.00 | 0.00 | 76 | 1011.7 |
| 20260903214205 | 30 | 203 | 12.9 | 19.3 | 0.00 | 0.00 | 0.00 | 76 | 1011.7 |
| 20260903213705 | 30 | 211 | 9.7 | 16.1 | 0.00 | 0.00 | 0.00 | 74 | 1011.7 |
| 20260903213205 | 31 | 204 | 14.5 | 19.3 | 0.00 | 0.00 | 0.00 | 75 | 1011.8 |
| 20260903212705 | 31 | 210 | 14.5 | 20.9 | 0.00 | 0.00 | 0.00 | 75 | 1011.9 |
| 20260903212205 | 31 | 193 | 11.3 | 16.1 | 0.00 | 0.00 | 0.00 | 74 | 1011.9 |
| 20260903211706 | 31 | 208 | 9.7 | 12.9 | 0.00 | 0.00 | 0.00 | 73 | 1012.0 |
| 20260903211205 | 31 | 196 | 11.3 | 16.1 | 0.00 | 0.00 | 0.00 | 73 | 1012.0 |
| 20260903210705 | 31 | 189 | 9.7 | 14.5 | 0.00 | 0.00 | 0.00 | 73 | 1012.0 |
| 20260903210205 | 32 | 208 | 9.7 | 12.9 | 0.00 | 0.00 | 0.00 | 73 | 1012.1 |
| 20260903205705 | 32 | 194 | 8.0 | 16.1 | 0.00 | 0.00 | 0.00 | 73 | 1012.0 |
| 20260903204705 | 32 | 183 | 14.5 | 19.3 | 0.00 | 0.00 | 0.00 | 73 | 1012.0 |
| 20260903204205 | 32 | 198 | 12.9 | 20.9 | 0.00 | 0.00 | 0.00 | 74 | 1012.0 |
| 20260903203705 | 32 | 175 | 9.7 | 16.1 | 0.00 | 0.00 | 0.00 | 73 | 1012.0 |
| 20260903203206 | 32 | 191 | 9.7 | 14.5 | 0.00 | 0.00 | 0.00 | 73 | 1012.1 |
| 20260903202705 | 32 | 197 | 11.3 | 14.5 | 0.00 | 0.00 | 0.00 | 73 | 1012.2 |
| 20260903202205 | 32 | 223 | 11.3 | 14.5 | 0.00 | 0.00 | 0.00 | 72 | 1012.3 |
| 20260903201705 | 32 | 216 | 14.5 | 19.3 | 0.00 | 0.00 | 0.00 | 72 | 1012.3 |
| 20260903201205 | 32 | 216 | 12.9 | 19.3 | 0.00 | 0.00 | 0.00 | 72 | 1012.5 |
| 20260903200705 | 31 | 228 | 11.3 | 14.5 | 0.00 | 0.00 | 0.00 | 75 | 1012.6 |
| 20260903200205 | 31 | 217 | 9.7 | 12.9 | 0.00 | 0.00 | 0.00 | 76 | 1012.8 |